Location: Dompnac
(44.5644°N, 4.1026°E)
Time: 18:11:37
(UTC+00:00)

USA 234 - Pass Details

Date: 26 January 2021
Orbit: 1100 x 1107 km, 123.0° (Epoch: 01 March)

Event Time Altitude Azimuth Distance (km) Brightness Sun altitude
Exits shadow 19:35:01 38° 13° (NNE) 1,611 4.0 -30.3°
Drops below altitude 10° 19:40:39 10° 314° (NW) 2,967 6.1 -31.3°
Sets 19:43:18 0° 307° (NW) 3,927 7.0 -31.8°
